Regional Weather Roundup
Issued by NWS

Home | Current Version | Previous Version | Graphics & Text | Print | Product List | Glossary On
Versions: 1 2 3 4 5 6 7 8 9 10 11 12 13 14 15 16 17 18 19 20 21 22 23 24 25 26 27 28 29 30 31 32 33 34 35 36 37 38 39 40 41 42 43 44 45 46 47 48 49 50
000
ASUS43 KIND 251959
RWRIN

WEATHER ROUNDUP FOR INDIANA
NATIONAL WEATHER SERVICE INDIANAPOLIS IN
400 PM EDT THU MAY 25 2017

NOTE: "FAIR" INDICATES FEW OR NO CLOUDS BELOW 12,000 FEET WITH NO
SIGNIFICANT WEATHER AND/OR OBSTRUCTIONS TO VISIBILITY.

* - STATION DOES NOT REPORT WEATHER SUCH AS PRECIPITATION OR FOG.

+ - STATION NOT QUALITY CONTROLLED BY THE NATIONAL WEATHER SERVICE.
    USE DATA WITH CAUTION...ESPECIALLY DEWPOINT AND RELATIVE
    HUMIDITY OBSERVATIONS.

INZ001>003-010>013-019-020-252100-
NORTHWEST INDIANA

CITY           SKY/WX    TMP DP  RH WIND       PRES   REMARKS
GARY /AIRPORT/ PTSUNNY   64  52  63 NW12G23   29.66R

$$

LMZ046-743>745-252100-
SOUTHERN LAKE MICHIGAN

STATION/POSITION TIME  TEMP    WIND        PRES    WAVE
                       AIR SEA DIR/SP/G            HT
                 (UTC) (F)     (DEG/KT/KT) (MB)    (FT)
BURNS HARBOR     1940   51     330/  7/ 10 1005.1R
MICHIGAN CITY    1930   48     280/  8/  8   N/A
5NW MICH CITY    1950   48 51  320/ 12/ 16   N/A     4

$$

INZ004-005-014>016-021>024-252100-
NORTH CENTRAL INDIANA

CITY           SKY/WX    TMP DP  RH WIND       PRES   REMARKS
GOSHEN         CLOUDY    61  54  77 NW14      29.57R
SOUTH BEND     CLOUDY    59  55  87 NW14      29.61R

$$

INZ006>009-017-018-025>027-252100-
NORTHEAST INDIANA

CITY           SKY/WX    TMP DP  RH WIND       PRES   REMARKS
FORT WAYNE     CLOUDY    65  57  75 NW9       29.55R

$$

INZ028-029-035-036-043>045-051>053-252100-
WEST CENTRAL INDIANA

CITY           SKY/WX    TMP DP  RH WIND       PRES   REMARKS
LAFAYETTE      CLOUDY    62  56  80 N10       29.63R
TERRE HAUTE    CLOUDY    65  54  67 W14       29.68R

$$

INZ030>032-037>040-046>048-054>057-064-065-252100-
CENTRAL INDIANA

CITY           SKY/WX    TMP DP  RH WIND       PRES   REMARKS
ANDERSON       CLOUDY   N/A N/A N/A NW17      29.60R
COLUMBUS       CLOUDY    63  55  77 W14G23    29.62R
INDIANAPOLIS   CLOUDY    62  55  77 NW10      29.62R
-EAGLE CREEK   CLOUDY    61  54  77 NW13      29.62R
KOKOMO +       CLOUDY    61  56  83 NW16      29.61R
SHELBYVILLE    CLOUDY    65  56  72 NW15G24   29.60R

$$

INZ033-034-041-042-049-050-058-059-252100-
EAST CENTRAL INDIANA

CITY           SKY/WX    TMP DP  RH WIND       PRES   REMARKS
MUNCIE         CLOUDY    62  57  83 W13G24    29.57R

$$

INZ060-061-067>069-081>083-085>088-252100-
SOUTHWEST INDIANA

CITY           SKY/WX    TMP DP  RH WIND       PRES   REMARKS
EVANSVILLE     MOSUNNY   73  55  53 W12G22    29.70S
HUNTINGBURG *+ PTSUNNY   68  56  65 W17G23    29.69R

$$

INZ062-063-066-070>080-084-089>092-252100-
SOUTH CENTRAL AND SOUTHEAST INDIANA

CITY           SKY/WX    TMP DP  RH WIND       PRES   REMARKS
BLOOMINGTON    CLOUDY    64  54  69 W12G21    29.65R
MADISON *+     CLOUDY    61  55  82 W6        29.64R
SEYMOUR +      PTSUNNY   66  57  72 W13G28    29.63R

$$





USA.gov is the U.S. government's official web portal to all federal, state and local government web resources and services.